FIN1337 EFHK-EGLL

Flight info

Callsign FIN1337
Flight time N/A
Altitude 40000
Route ADIVO4N ADIVO Y365 POGOK DCT TIPIX DCT UPGAS DCT TIPAN DCT WECOW DCT BINBO DCT AKOKO N866 BUKUT P7 BARMI BARMI1H
Aircraft A359/H-SDE2E3GHIJ3J4J5LM1ORWXY/LB1D1

Departure

Time 2026-05-07 18:11
Airport Helsinki Vantaa Airport (EFHK)

Arrival

Time N/A
Airport London Heathrow Airport (EGLL)
Time Latitude Longitude Altitude Speed Heading
2026-05-07 17:30 60.31468 24.95605 168 ft 0 kts 138°
2026-05-07 17:57 60.31474 24.95594 167 ft 4 kts 136°
2026-05-07 17:57 60.31496 24.95539 167 ft 4 kts 116°
2026-05-07 17:57 60.31504 24.95490 167 ft 4 kts 85°
2026-05-07 17:58 60.31498 24.95455 167 ft 0 kts 48°
2026-05-07 18:03 60.31515 24.95492 168 ft 13 kts 48°
2026-05-07 18:03 60.31573 24.95624 168 ft 8 kts 44°
2026-05-07 18:03 60.31598 24.95659 168 ft 0 kts 17°
2026-05-07 18:03 60.31633 24.95705 168 ft 12 kts 39°
2026-05-07 18:04 60.31673 24.95786 168 ft 13 kts 46°
2026-05-07 18:04 60.31741 24.95934 168 ft 16 kts 47°
2026-05-07 18:04 60.31814 24.96093 168 ft 10 kts 43°
2026-05-07 18:04 60.31873 24.96110 168 ft 8 kts 338°
2026-05-07 18:05 60.31937 24.96008 168 ft 17 kts 316°
2026-05-07 18:05 60.32001 24.95891 168 ft 0 kts 319°
2026-05-07 18:07 60.32024 24.95852 169 ft 24 kts 319°
2026-05-07 18:07 60.32207 24.95511 167 ft 39 kts 317°
2026-05-07 18:07 60.32426 24.95221 167 ft 38 kts 343°
2026-05-07 18:07 60.32677 24.95056 167 ft 30 kts 341°
2026-05-07 18:08 60.32838 24.94952 167 ft 25 kts 343°
2026-05-07 18:08 60.32961 24.94788 168 ft 20 kts 315°
2026-05-07 18:08 60.32984 24.94745 168 ft 0 kts 320°
2026-05-07 18:09 60.33018 24.94683 168 ft 25 kts 317°
2026-05-07 18:09 60.33065 24.94598 169 ft 0 kts 317°
2026-05-07 18:09 60.33094 24.94542 172 ft 18 kts 313°
2026-05-07 18:10 60.33097 24.94349 180 ft 13 kts 230°
2026-05-07 18:10 60.33067 24.94286 182 ft 0 kts 225°
2026-05-07 18:10 60.33027 24.94199 184 ft 35 kts 227°
2026-05-07 18:11 60.32690 24.93461 178 ft 107 kts 228°
2026-05-07 18:11 60.32056 24.92008 208 ft 163 kts 230°
2026-05-07 18:11 60.31317 24.90251 864 ft 164 kts 234°
2026-05-07 18:11 60.30953 24.88124 1523 ft 173 kts 268°
2026-05-07 18:12 60.31081 24.85506 1893 ft 203 kts 280°
2026-05-07 18:12 60.31354 24.82619 2517 ft 218 kts 281°
2026-05-07 18:12 60.31646 24.79469 3034 ft 240 kts 280°
2026-05-07 18:12 60.31810 24.76010 3630 ft 253 kts 270°
2026-05-07 18:13 60.31759 24.72429 4438 ft 257 kts 267°
2026-05-07 18:13 60.31673 24.68818 5263 ft 262 kts 267°
2026-05-07 18:13 60.31584 24.65114 6092 ft 266 kts 267°
2026-05-07 18:13 60.31493 24.61356 6967 ft 270 kts 267°
2026-05-07 18:14 60.31402 24.57537 7856 ft 274 kts 268°
2026-05-07 18:14 60.31313 24.53737 8738 ft 277 kts 267°
2026-05-07 18:14 60.31213 24.49819 9609 ft 281 kts 267°
2026-05-07 18:14 60.31110 24.45852 10429 ft 289 kts 267°
2026-05-07 18:15 60.31001 24.41647 10819 ft 312 kts 267°
2026-05-07 18:15 60.30884 24.37113 11180 ft 334 kts 267°
2026-05-07 18:15 60.30762 24.32320 11660 ft 349 kts 267°
2026-05-07 18:15 60.30635 24.27386 12376 ft 356 kts 267°
2026-05-07 18:16 60.30503 24.22415 13135 ft 361 kts 267°
2026-05-07 18:16 60.30365 24.17320 13894 ft 366 kts 267°
2026-05-07 18:16 60.30222 24.12160 14639 ft 371 kts 266°
2026-05-07 18:16 60.30075 24.06931 15358 ft 375 kts 266°
2026-05-07 18:17 60.29921 24.01632 16063 ft 379 kts 266°
2026-05-07 18:17 60.29628 23.96324 16755 ft 383 kts 261°
2026-05-07 18:17 60.29166 23.90987 17453 ft 387 kts 259°
2026-05-07 18:17 60.28618 23.85648 18134 ft 391 kts 258°
2026-05-07 18:18 60.28030 23.80334 18805 ft 395 kts 257°
2026-05-07 18:18 60.27413 23.74908 19489 ft 400 kts 257°
2026-05-07 18:18 60.26788 23.69408 20168 ft 404 kts 257°
2026-05-07 18:18 60.26251 23.64653 20746 ft 407 kts 259°
2026-05-07 18:19 60.25675 23.59209 21367 ft 410 kts 260°
2026-05-07 18:19 60.25094 23.53421 21987 ft 415 kts 260°
2026-05-07 18:19 60.24515 23.47715 22549 ft 419 kts 259°
2026-05-07 18:19 60.23911 23.41951 23126 ft 422 kts 259°
2026-05-07 18:20 60.23282 23.36154 23689 ft 426 kts 259°
2026-05-07 18:20 60.22634 23.30309 24242 ft 430 kts 259°
2026-05-07 18:20 60.21975 23.24463 24786 ft 433 kts 258°
2026-05-07 18:20 60.21289 23.18519 25324 ft 437 kts 258°
2026-05-07 18:21 60.20590 23.12543 25853 ft 440 kts 258°
2026-05-07 18:21 60.19896 23.06611 26356 ft 444 kts 258°
2026-05-07 18:21 60.19188 23.00552 26852 ft 448 kts 258°
2026-05-07 18:21 60.18474 22.94428 27341 ft 451 kts 257°
2026-05-07 18:22 60.17727 22.88284 27790 ft 455 kts 256°
2026-05-07 18:22 60.17208 22.84098 27951 ft 455 kts 256°
2026-05-07 18:22 60.16195 22.75913 28013 ft 456 kts 256°
2026-05-07 18:22 60.15441 22.69728 27997 ft 457 kts 256°
2026-05-07 18:23 60.14695 22.63525 27999 ft 457 kts 256°
2026-05-07 18:23 60.13954 22.57305 28129 ft 459 kts 257°
2026-05-07 18:23 60.13211 22.51045 28572 ft 462 kts 256°
2026-05-07 18:23 60.12459 22.44757 29083 ft 464 kts 256°
2026-05-07 18:24 60.11710 22.38535 29528 ft 467 kts 256°
2026-05-07 18:24 60.10942 22.32190 29962 ft 470 kts 256°
2026-05-07 18:24 60.10165 22.25802 30386 ft 473 kts 256°
2026-05-07 18:24 60.09381 22.19382 30766 ft 476 kts 256°
2026-05-07 18:25 60.08587 22.12907 31133 ft 478 kts 256°
2026-05-07 18:25 60.07788 22.06422 31493 ft 481 kts 256°
2026-05-07 18:25 60.06980 21.99887 31829 ft 483 kts 256°
2026-05-07 18:25 60.06167 21.93336 32159 ft 486 kts 256°
2026-05-07 18:26 60.05358 21.86843 32464 ft 488 kts 256°
2026-05-07 18:26 60.04532 21.80231 32768 ft 490 kts 256°
2026-05-07 18:26 60.03700 21.73594 33076 ft 492 kts 256°
2026-05-07 18:26 60.02864 21.66971 33497 ft 491 kts 256°
2026-05-07 18:27 60.02025 21.60356 33922 ft 489 kts 256°
2026-05-07 18:27 60.01181 21.53755 34321 ft 489 kts 256°
2026-05-07 18:27 60.00338 21.47184 34683 ft 488 kts 256°
2026-05-07 18:27 59.99457 21.40635 35030 ft 487 kts 252°
2026-05-07 18:28 59.98335 21.34297 35370 ft 487 kts 249°
2026-05-07 18:28 59.97119 21.27943 35698 ft 486 kts 249°
2026-05-07 18:28 59.95879 21.21671 36018 ft 485 kts 248°
2026-05-07 18:28 59.94622 21.15419 36332 ft 485 kts 248°
2026-05-07 18:29 59.93360 21.09196 36595 ft 485 kts 248°
2026-05-07 18:29 59.92111 21.03049 36856 ft 485 kts 248°
2026-05-07 18:29 59.90843 20.96816 37119 ft 485 kts 248°
2026-05-07 18:29 59.89574 20.90578 37378 ft 485 kts 248°
2026-05-07 18:30 59.88304 20.84341 37595 ft 485 kts 248°
2026-05-07 18:30 59.87035 20.78118 37842 ft 485 kts 248°
2026-05-07 18:30 59.85761 20.71892 38074 ft 485 kts 248°
2026-05-07 18:30 59.84485 20.65677 38292 ft 485 kts 248°
2026-05-07 18:31 59.83205 20.59462 38519 ft 485 kts 248°
2026-05-07 18:31 59.81923 20.53255 38720 ft 485 kts 248°
2026-05-07 18:31 59.80638 20.47054 38931 ft 485 kts 248°
2026-05-07 18:31 59.79348 20.40849 39122 ft 485 kts 248°
2026-05-07 18:32 59.78057 20.34658 39312 ft 485 kts 248°
2026-05-07 18:32 59.76777 20.28536 39500 ft 485 kts 248°
2026-05-07 18:32 59.75480 20.22357 39670 ft 485 kts 247°
2026-05-07 18:32 59.74181 20.16179 39853 ft 485 kts 247°
2026-05-07 18:33 59.72877 20.09999 39986 ft 486 kts 247°
2026-05-07 18:33 59.70258 19.97641 40000 ft 486 kts 247°
2026-05-07 18:34 59.67631 19.85311 40001 ft 486 kts 247°
2026-05-07 18:34 59.64987 19.72980 39998 ft 486 kts 247°
2026-05-07 18:35 59.62368 19.60830 40000 ft 486 kts 247°
2026-05-07 18:35 59.59730 19.48665 40000 ft 486 kts 247°
2026-05-07 18:36 59.57039 19.36330 40000 ft 486 kts 246°
2026-05-07 18:36 59.54354 19.24096 40000 ft 486 kts 246°
2026-05-07 18:37 59.51673 19.11948 40002 ft 486 kts 246°
2026-05-07 18:37 59.48962 18.99738 40001 ft 486 kts 246°
2026-05-07 18:38 59.46243 18.87558 39999 ft 486 kts 246°
2026-05-07 18:38 59.43511 18.75396 40000 ft 486 kts 246°
2026-05-07 18:39 59.40769 18.63253 40000 ft 486 kts 246°
2026-05-07 18:39 59.38028 18.51190 40001 ft 486 kts 246°
2026-05-07 18:40 59.35278 18.39153 39999 ft 486 kts 246°
2026-05-07 18:40 59.32502 18.27070 40002 ft 486 kts 246°
2026-05-07 18:41 59.29713 18.14999 39998 ft 486 kts 245°
2026-05-07 18:41 59.26916 18.02962 39998 ft 486 kts 245°
2026-05-07 18:42 59.24107 17.90941 39999 ft 486 kts 245°
2026-05-07 18:42 59.21285 17.78929 40001 ft 486 kts 245°
2026-05-07 18:43 59.18449 17.66926 40000 ft 486 kts 245°
2026-05-07 18:43 59.15619 17.55017 40001 ft 486 kts 245°
2026-05-07 18:44 59.12765 17.43069 40002 ft 486 kts 245°
2026-05-07 18:44 59.09899 17.31138 40000 ft 486 kts 245°
2026-05-07 18:45 59.07022 17.19229 40002 ft 486 kts 245°
2026-05-07 18:45 59.04185 17.07546 40001 ft 486 kts 245°
2026-05-07 18:46 59.01305 16.95753 40001 ft 486 kts 245°
2026-05-07 18:46 58.98395 16.83899 39998 ft 486 kts 244°
2026-05-07 18:47 58.95475 16.72068 40001 ft 486 kts 244°
2026-05-07 18:47 58.92543 16.60251 39998 ft 486 kts 244°
2026-05-07 18:48 58.89618 16.48519 40000 ft 486 kts 244°
2026-05-07 18:48 58.86709 16.36719 40002 ft 486 kts 245°
2026-05-07 18:49 58.83803 16.24907 40000 ft 486 kts 244°
2026-05-07 18:49 58.80882 16.13125 39996 ft 487 kts 244°
2026-05-07 18:50 58.77944 16.01365 40000 ft 487 kts 244°
2026-05-07 18:50 58.74994 15.89627 40001 ft 487 kts 244°
2026-05-07 18:51 58.72131 15.78294 39999 ft 487 kts 244°